Content
SEND FEEDBACK

Daily
Averages
Monthly
Summary
United States of America

LEXINGTON, NEBRASKA


Home > North America > United States > Nebraska
Elevation: 2407 feet     Latitude: 40 47N     Longitude: 099 46W

WEATHER
 
SELECT A DAY
Number of Records: 444,693;   Date Range: 10/21/96 - 10/20/14
 
SHARE

PRINT THIS DATA

[ ← Previous Day ]
WEATHER ALMANAC - FEBRUARY 13, 2013
[ Next Day → ]
[ °C ]   °F
Weather ElementAverageHighLow
Temperature37.3 °F52.5 °F (3:35 pm)23.9 °F (7:35 am)
Dewpoint24.3 °F31.8 °F (11:15 pm)19.4 °F (7:35 am)
Humidity62.4 %84 % (7:55 am)34 % (1:35 pm)
Barometer29.87 in29.94 in (12:35 am)29.79 in (4:35 pm)
Wind Speed12.9 mph21.9 mph (2:35 pm)
Wind Gust26.5 mph (12:15 pm)
Weather ElementAverage
Visibility10 mi
Wind DirectionWNW (296.8 °)

Weather ElementTotal
Precipitation---
Heating Degree Days26.8 (Base 65)
Averaged from 71 records on February 13, 2013
WEATHER CONDITIONS BREAKOUT
WIND DIRECTION BREAKOUT
WEATHER BY HOUR - FEBRUARY 13, 2013
[ °C ]   °F
Local TimeTemperatureDewpointHumidityBarometerVisibilityWind DirectionWind SpeedGust SpeedPrecipitationEventsConditions
12:35 AM28.9 °F24.4 °F83 %29.94 in10.0 miNW (310°)11.5 mphClear
12:55 AM29.8 °F25.0 °F82 %29.94 in10.0 miWNW (300°)10.4 mphClear
1:15 AM29.7 °F24.4 °F81 %29.94 in10.0 miWNW (300°)13.8 mphClear
1:35 AM28.9 °F23.7 °F81 %29.94 in10.0 miWNW (290°)12.7 mphClear
1:55 AM28.8 °F23.7 °F81 %29.93 in10.0 miWNW (300°)11.5 mphClear
2:15 AM28.4 °F23.4 °F81 %29.93 in10.0 miWNW (290°)11.5 mphClear
2:35 AM28.2 °F23.0 °F81 %29.93 in10.0 miWNW (290°)11.5 mphScattered Clouds
2:55 AM29.1 °F23.4 °F79 %29.92 in10.0 miWNW (300°)10.4 mphScattered Clouds
3:15 AM29.3 °F23.4 °F78 %29.91 in10.0 miWNW (300°)8.1 mphMostly Cloudy
3:35 AM29.7 °F23.0 °F76 %29.90 in10.0 miWNW (300°)10.4 mphOvercast
3:55 AM29.7 °F22.3 °F74 %29.91 in10.0 miWNW (290°)12.7 mphOvercast
4:15 AM29.7 °F22.1 °F73 %29.90 in10.0 miWNW (300°)16.1 mphOvercast
4:35 AM29.3 °F21.7 °F73 %29.90 in10.0 miWNW (300°)15.0 mphOvercast
4:55 AM28.8 °F21.2 °F73 %29.89 in10.0 miWNW (300°)15.0 mphOvercast
5:15 AM28.8 °F21.2 °F73 %29.90 in10.0 miWNW (300°)15.0 mphMostly Cloudy
5:35 AM28.4 °F21.2 °F74 %29.89 in10.0 miWNW (300°)13.8 mphMostly Cloudy
5:55 AM27.9 °F20.8 °F75 %29.89 in10.0 miWNW (300°)15.0 mphClear
6:15 AM28.0 °F21.0 °F75 %29.90 in10.0 miWNW (300°)11.5 mphScattered Clouds
6:35 AM28.2 °F20.8 °F74 %29.90 in10.0 miWNW (300°)11.5 mphMostly Cloudy
6:55 AM27.3 °F20.3 °F75 %29.89 in10.0 miWNW (300°)11.5 mphScattered Clouds
7:15 AM26.1 °F20.1 °F78 %29.88 in10.0 miWNW (300°)8.1 mphClear
7:35 AM23.9 °F19.4 °F83 %29.88 in10.0 miWNW (300°)5.8 mphClear
7:55 AM23.9 °F19.8 °F84 %29.89 in10.0 miWNW (300°)8.1 mphClear
8:15 AM25.7 °F20.3 °F80 %29.89 in10.0 miWNW (300°)8.1 mphClear
8:35 AM27.1 °F21.0 °F78 %29.89 in10.0 miWNW (290°)4.6 mphClear
8:55 AM28.6 °F21.7 °F76 %29.89 in10.0 miNW (310°)5.8 mphClear
9:15 AM30.2 °F22.1 °F72 %29.89 in10.0 miWNW (290°)8.1 mphClear
9:35 AM32.2 °F22.8 °F68 %29.89 in10.0 miNW (310°)9.2 mphClear
9:55 AM34.9 °F23.4 °F63 %29.87 in10.0 miWNW (300°)11.5 mphClear
10:15 AM36.7 °F23.4 °F59 %29.87 in10.0 miWNW (300°)12.7 mphClear
10:35 AM38.8 °F23.5 °F54 %29.88 in10.0 miWNW (300°)16.1 mph23.0 mphClear
10:55 AM40.5 °F23.2 °F50 %29.87 in10.0 miWNW (300°)13.8 mph20.7 mphClear
11:15 AM42.3 °F21.9 °F44 %29.87 in10.0 miWNW (290°)15.0 mphClear
11:35 AM44.6 °F21.2 °F39 %29.86 in10.0 miWNW (290°)17.3 mphClear
11:55 AM45.7 °F21.7 °F39 %29.86 in10.0 miWNW (300°)18.4 mphClear
12:15 PM46.0 °F22.1 °F39 %29.86 in10.0 miWNW (300°)20.7 mph26.5 mphClear
12:35 PM47.3 °F21.9 °F37 %29.85 in10.0 miWNW (290°)19.6 mph24.2 mphClear
12:55 PM48.6 °F22.5 °F36 %29.84 in10.0 miWNW (290°)15.0 mphClear
1:15 PM49.5 °F22.5 °F35 %29.83 in10.0 miWNW (300°)17.3 mphClear
1:35 PM50.5 °F23.0 °F34 %29.83 in10.0 miWNW (300°)17.3 mphClear
1:55 PM50.4 °F22.5 °F34 %29.82 in10.0 miWNW (300°)20.7 mph25.3 mphClear
2:15 PM50.2 °F23.4 °F35 %29.80 in10.0 miNW (310°)17.3 mph20.7 mphClear
2:35 PM50.5 °F24.1 °F36 %29.81 in10.0 miWNW (300°)21.9 mph26.5 mphClear
2:55 PM52.0 °F25.0 °F35 %29.80 in10.0 miNW (320°)15.0 mph19.6 mphClear
3:15 PM51.3 °F24.3 °F35 %29.80 in10.0 miNW (310°)15.0 mphClear
3:35 PM52.5 °F24.6 °F34 %29.80 in10.0 miNW (320°)19.6 mph26.5 mphClear
3:55 PM52.3 °F25.3 °F35 %29.80 in10.0 miNW (310°)16.1 mphClear
4:15 PM50.5 °F25.0 °F37 %29.81 in10.0 miNW (310°)18.4 mphClear
4:35 PM51.3 °F25.3 °F37 %29.79 in10.0 miWNW (290°)17.3 mph24.2 mphClear
4:55 PM51.1 °F26.4 °F38 %29.79 in10.0 miWNW (290°)15.0 mph20.7 mphClear
5:15 PM50.0 °F26.8 °F41 %29.80 in10.0 miWNW (290°)16.1 mphClear
5:35 PM48.2 °F27.5 °F45 %29.80 in10.0 miWest (280°)11.5 mphClear
5:55 PM46.2 °F27.3 °F48 %29.80 in10.0 miWest (280°)11.5 mphClear
6:15 PM43.7 °F26.8 °F51 %29.81 in10.0 miWNW (290°)10.4 mphClear
6:35 PM39.6 °F26.2 °F59 %29.81 in10.0 miWest (280°)8.1 mphClear
6:55 PM36.7 °F25.3 °F64 %29.81 in10.0 miWest (260°)6.9 mphClear
7:15 PM35.6 °F25.7 °F67 %29.82 in10.0 miWest (280°)6.9 mphClear
7:35 PM34.9 °F25.2 °F68 %29.82 in10.0 miWest (270°)8.1 mphClear
7:55 PM33.3 °F25.5 °F73 %29.83 in10.0 miWest (270°)8.1 mphScattered Clouds
8:15 PM35.6 °F27.3 °F72 %29.83 in10.0 miWest (270°)8.1 mphMostly Cloudy
8:35 PM36.5 °F27.5 °F70 %29.83 in10.0 miWest (280°)5.8 mphOvercast
8:55 PM37.4 °F28.2 °F69 %29.84 in10.0 miWNW (300°)8.1 mphOvercast
9:15 PM36.1 °F27.5 °F71 %29.85 in10.0 miNW (320°)10.4 mphOvercast
9:35 PM39.2 °F27.9 °F64 %29.86 in10.0 miWNW (290°)13.8 mphMostly Cloudy
9:55 PM38.1 °F28.4 °F68 %29.88 in10.0 miWNW (290°)13.8 mphOvercast
10:15 PM38.1 °F29.3 °F71 %29.89 in10.0 miWNW (300°)16.1 mphOvercast
10:35 PM38.5 °F30.2 °F72 %29.90 in10.0 miNW (310°)17.3 mphScattered Clouds
10:55 PM39.2 °F31.1 °F73 %29.89 in10.0 miWNW (300°)15.0 mphMostly Cloudy
11:15 PM38.3 °F31.8 °F77 %29.91 in10.0 miNW (310°)13.8 mphMostly Cloudy
11:35 PM37.0 °F31.5 °F80 %29.91 in10.0 miWNW (300°)13.8 mphScattered Clouds
11:55 PM37.4 °F31.8 °F80 %29.92 in10.0 miNW (310°)11.5 mphClear
Hourly data recorded from KLXN, located miles away from Lexington, Nebraska







STORIES FROM OUR PARTNERS